Theta_e
317 311 309 312 315 315 313 311 310 319 321 318 316 318 319 319 320 318 318 317 317 319 323 324 323 325 326 326 324 323 322 322 320 317 316 315 314 316 315 315 316 315 315 315
312 309 313 315 314 313 312 311 311 316 320 318 317 316 317 318 318 318 317 317 317 316 320 321 322 323 323 323 323 321 320 321 319 317 317 316 315 315 314 315 316 317 316 317
310 312 316 313 313 312 311 306 304 312 316 318 315 313 314 318 319 318 318 318 318 317 317 319 319 321 320 320 320 320 319 318 320 320 318 316 317 318 313 313 313 316 317 317
313 318 314 314 312 314 309 313 312 311 310 304 315 303 312 315 316 316 317 316 315 317 317 318 319 319 319 318 319 319 318 317 318 321 318 317 312 309 311 312 315 317 319 318
312 312 314 312 313 315 311 316 313 312 310 309 307 295 306 315 312 312 315 314 315 317 316 317 319 319 318 317 317 317 318 318 320 320 319 314 315 312 313 314 317 318 319 318
314 320 317 316 316 316 317 314 314 314 311 295 306 301 304 310 313 315 317 316 315 316 317 319 320 318 317 317 317 317 317 316 318 319 319 318 315 315 313 314 313 314 318 318
309 311 318 318 314 318 316 311 302 298 299 299 308 306 308 312 313 316 315 313 315 316 317 317 315 315 315 315 316 315 315 313 316 317 317 317 316 317 316 315 313 314 313 317
308 304 314 317 314 310 310 309 301 294 295 297 308 296 306 313 314 314 315 314 317 316 316 315 315 315 315 315 315 315 313 313 315 317 317 317 318 316 315 318 315 314 314 315
308 307 316 314 315 313 308 305 311 303 303 299 301 303 311 314 314 315 315 316 315 315 316 315 315 315 315 315 314 315 312 313 314 315 318 317 317 318 316 318 319 316 319 316
313 306 313 313 314 313 311 312 304 303 295 292 299 298 299 305 309 312 312 313 312 316 314 314 314 315 315 315 313 313 313 313 316 316 316 317 317 318 318 318 317 318 319 319
315 312 308 311 309 306 307 305 307 307 300 295 292 294 308 308 309 309 311 313 315 314 313 314 312 314 314 314 312 313 313 312 314 315 316 317 317 318 317 317 317 318 319 318
316 310 304 305 311 312 311 307 307 301 299 301 299 298 310 310 311 312 311 313 315 315 314 313 313 313 311 312 311 313 312 312 314 315 316 317 318 319 318 318 317 318 317 317
315 310 300 304 308 311 306 308 309 309 307 298 295 297 310 309 308 310 310 312 312 313 313 313 311 309 309 312 311 311 313 312 314 316 316 318 319 319 319 319 319 318 317 315
319 310 306 301 302 307 304 304 307 306 298 298 298 301 304 304 305 307 308 310 310 311 311 310 309 310 310 311 311 310 312 315 314 315 316 316 319 319 318 318 318 318 317 315
318 307 308 308 308 306 303 302 302 300 302 298 300 300 302 305 306 307 309 310 310 309 308 310 310 311 310 311 310 311 312 314 316 316 316 317 319 317 318 318 319 318 318 317
316 307 308 303 306 305 300 301 303 303 303 303 303 300 306 307 308 308 309 309 309 309 310 310 311 311 310 310 310 311 312 314 315 315 315 317 317 318 316 317 318 319 319 318
314 310 306 297 304 304 299 301 302 303 304 302 297 302 306 306 306 308 309 310 309 310 310 310 310 311 312 311 312 313 314 316 315 316 315 314 316 314 317 317 318 318 320 320
313 313 309 298 303 292 301 308 306 303 303 305 305 306 307 307 310 311 313 310 310 310 311 311 312 312 312 312 312 315 315 315 315 315 313 313 314 313 313 316 317 320 320 321
319 312 307 300 298 301 302 304 303 303 302 307 306 308 309 310 311 308 313 313 312 312 313 313 313 313 313 313 315 314 313 314 315 314 312 315 316 315 317 313 315 319 318 322
316 316 307 302 296 291 301 307 309 310 296 309 309 306 307 309 302 305 313 314 314 314 313 313 313 314 313 313 316 315 314 314 314 314 314 316 317 316 316 319 319 318 317 319
309 309 303 301 299 300 308 310 311 297 300 312 309 309 309 306 309 313 315 315 316 316 315 315 314 313 316 317 315 314 315 313 317 317 316 317 318 318 317 320 321 321 317 316
305 305 302 304 299 293 313 311 305 311 315 314 312 309 310 314 313 313 313 314 315 316 315 315 314 313 316 317 315 314 314 317 318 317 316 317 318 316 317 321 321 321 320 317
303 308 304 306 304 314 315 313 316 316 313 314 313 313 313 314 313 313 313 314 316 316 316 317 315 315 315 315 316 313 316 317 317 318 318 318 318 317 318 319 320 317 321 315
309 315 306 307 309 309 312 314 312 313 312 313 313 312 312 312 313 313 314 315 316 316 316 317 316 315 314 315 314 316 317 317 317 317 318 318 317 317 318 316 313 316 315 316
309 311 306 306 309 310 308 310 310 310 310 310 311 311 311 312 310 311 312 314 315 314 315 317 316 316 316 316 316 317 318 318 317 318 318 318 317 319 317 319 317 316 320 313
309 308 303 301 310 308 308 309 309 307 307 308 309 309 311 310 309 311 312 314 315 315 317 317 319 318 317 317 316 317 318 317 317 317 317 318 315 314 315 315 315 304 302 302
Wind_Speed
15 12 15 16 8 13 13 17 8 15 5 6 5 14 12 11 13 9 11 10 9 8 8 5 2 8 8 8 8 8 10 11 10 9 10 10 10 9 8 7 7 7 8 9
15 14 14 8 11 14 18 15 17 8 5 5 7 12 12 12 12 11 10 11 10 7 11 6 7 6 7 7 7 8 9 9 7 10 7 7 8 7 5 7 9 8 10 9
12 6 4 6 9 13 12 19 27 12 2 12 8 13 13 13 9 10 9 9 9 13 9 10 6 6 5 5 7 8 8 8 4 6 6 6 10 4 7 8 7 8 9 10
8 19 3 9 5 14 9 13 9 12 14 15 16 5 17 15 14 12 12 11 7 5 4 6 10 5 3 6 6 6 7 4 6 5 7 9 8 6 6 8 6 6 9 10
8 19 7 7 9 7 8 13 16 21 16 21 14 10 6 15 12 7 7 12 9 9 5 6 5 5 3 4 5 4 5 5 4 5 7 7 9 7 4 6 6 8 8 9
14 4 8 7 4 3 4 11 18 12 5 1 9 5 8 7 8 11 11 10 9 7 8 7 6 3 2 6 7 7 10 7 6 7 6 8 8 9 7 8 8 4 5 6
6 26 4 1 8 9 10 12 12 10 8 9 10 9 15 15 10 11 14 10 10 8 7 7 5 4 3 8 9 8 12 7 7 8 8 8 8 9 9 8 7 9 7 4
4 4 7 9 10 12 19 9 11 18 14 19 21 16 9 11 11 15 9 9 8 4 6 7 5 6 9 9 8 8 11 8 7 8 9 8 7 7 7 10 7 6 6 5
14 6 4 1 10 8 14 13 6 14 21 15 4 7 12 12 10 10 10 7 7 6 6 5 4 6 8 9 7 9 8 7 7 9 6 6 7 9 8 9 8 7 7 8
7 11 4 4 8 8 7 10 12 7 13 8 11 10 9 11 9 4 6 6 4 2 7 5 5 6 6 6 6 7 7 7 4 6 7 7 8 9 6 7 8 6 7 7
10 11 13 11 9 11 13 5 9 7 7 12 4 1 10 14 15 13 11 8 7 5 3 4 2 4 7 7 6 9 7 8 7 7 7 6 6 7 7 5 8 8 6 10
7 7 10 7 9 10 9 8 9 11 4 3 6 8 11 11 10 9 13 8 9 9 6 6 6 9 10 8 9 7 4 5 5 7 7 8 8 7 6 7 6 6 8 7
10 6 10 12 5 5 14 19 20 11 13 16 9 4 12 14 11 10 9 11 6 7 5 8 9 7 4 6 8 6 5 5 6 9 8 10 9 6 6 6 5 6 7 6
5 4 6 12 17 16 13 17 18 17 6 8 11 10 15 13 12 12 11 7 5 3 5 6 5 5 4 4 6 6 4 6 6 6 8 8 8 8 4 5 7 7 6 5
5 6 10 18 17 14 14 17 10 6 5 6 12 10 11 12 10 10 8 7 7 6 8 8 8 7 5 6 3 6 3 4 4 8 5 6 9 6 5 5 7 5 6 5
2 4 12 14 11 14 12 3 6 7 10 9 8 10 13 11 11 9 9 8 9 8 10 9 7 6 4 5 3 4 6 5 4 5 6 4 3 5 4 4 3 3 5 6
3 6 5 3 7 8 6 12 7 5 11 10 10 11 11 12 10 8 10 10 11 10 8 8 7 5 5 1 4 4 6 6 4 6 7 2 4 4 5 6 7 7 4 4
3 0 4 7 5 5 6 7 2 9 8 10 9 11 12 12 7 6 10 12 10 8 9 8 7 5 2 3 2 6 5 6 4 6 6 6 4 3 4 4 4 5 5 4
6 4 3 3 4 11 11 9 8 5 13 9 11 12 12 14 11 2 11 10 7 6 7 6 6 6 4 4 5 7 6 6 4 10 2 3 5 8 9 4 6 3 4 3
7 4 3 5 3 3 8 11 6 4 5 11 15 13 13 16 11 13 12 9 8 7 4 6 8 6 4 3 5 7 8 7 5 8 3 3 3 4 4 7 6 4 6 4
2 2 2 5 6 6 10 11 11 4 8 14 11 12 9 10 10 10 9 8 7 6 6 6 7 6 5 5 6 10 7 8 6 10 3 4 6 8 4 4 6 6 5 6
8 9 5 3 3 4 15 9 9 10 13 11 10 10 11 14 12 11 12 11 6 8 6 7 8 9 7 5 5 10 7 8 8 7 6 4 6 6 8 1 4 6 4 7
4 9 7 10 7 8 13 11 9 11 9 9 13 15 14 16 16 12 13 12 10 9 6 7 8 8 6 7 7 8 9 7 9 8 8 6 8 7 5 7 6 6 6 6
5 11 5 7 6 10 12 11 13 14 15 15 14 15 11 12 13 17 15 15 13 8 8 7 8 8 9 7 9 8 7 7 10 9 10 7 7 9 6 6 3 10 4 6
8 7 5 10 12 4 12 14 15 15 16 17 17 16 17 19 16 13 14 14 13 12 13 10 5 8 9 8 8 6 7 9 11 8 8 8 8 8 6 8 6 8 6 4
10 11 7 4 11 9 12 12 15 15 15 15 15 16 16 13 12 13 15 14 15 17 17 16 15 12 10 9 7 6 6 9 11 10 8 8 5 8 6 9 4 10 8 5
Wind_Direction
194 250 263 277 292 300 320 301 319 86 78 232 109 149 168 179 204 185 181 154 157 171 123 91 106 54 53 47 35 17 4 8 342 353 346 354 341 337 10 340 1 329 307 303
244 239 253 6 313 322 292 288 64 339 214 233 167 142 150 177 192 186 158 171 148 113 140 172 113 78 74 49 21 23 8 10 357 351 340 342 311 308 351 11 334 328 337 322
262 116 288 300 273 263 52 37 319 19 160 239 315 147 165 187 178 177 173 147 178 156 123 106 76 55 64 43 26 22 15 11 2 354 356 342 314 15 358 341 345 343 334 337
18 345 309 237 328 1 358 163 268 310 272 296 185 248 167 174 182 190 176 87 21 111 134 105 138 120 69 28 23 25 44 17 353 13 351 345 317 350 352 325 329 327 356 343
145 219 257 285 24 358 353 337 313 296 283 351 5 76 261 162 180 168 121 150 204 162 103 99 113 98 76 35 13 41 50 47 359 341 1 345 4 344 322 310 331 8 360 345
5 28 359 40 72 347 325 289 281 271 339 118 234 215 168 160 184 181 160 150 164 144 108 107 104 140 57 32 11 5 69 45 351 320 340 358 2 335 334 333 342 342 357 358
193 277 125 236 279 210 247 278 289 311 253 302 210 225 49 48 83 136 144 167 118 113 142 160 179 52 24 28 15 355 59 18 346 347 359 340 352 322 324 345 327 333 355 16
11 294 352 19 313 332 304 353 318 305 332 315 37 17 100 99 133 126 106 50 94 132 135 108 73 16 16 17 26 355 46 19 331 20 355 351 337 344 349 333 340 319 345 352
326 356 231 63 343 326 332 315 351 299 274 298 122 177 91 111 87 66 125 156 163 134 73 104 92 16 13 6 33 16 19 7 352 333 15 3 11 10 349 320 313 357 354 329
9 311 84 17 297 284 295 6 322 325 297 296 87 77 48 83 86 156 97 91 179 29 82 81 22 2 7 12 35 52 47 325 8 328 6 11 3 352 343 325 342 351 350 329
5 332 315 289 26 353 332 30 333 338 41 297 78 122 45 39 35 11 4 97 107 77 118 65 27 356 11 7 24 52 26 334 346 310 0 343 356 348 339 6 337 348 2 7
59 303 312 357 51 354 30 358 356 330 359 341 319 34 61 38 32 36 343 53 36 13 6 47 312 27 26 345 56 24 347 322 329 296 356 352 360 332 336 359 355 353 30 356
340 42 300 108 45 5 14 27 24 337 3 331 44 160 61 36 11 26 15 9 47 339 24 330 10 32 22 351 43 356 346 336 324 312 21 7 12 11 12 22 0 2 59 15
333 330 347 38 60 56 40 34 28 29 30 38 347 53 30 15 3 7 6 9 5 3 350 357 305 8 44 44 37 336 338 328 315 335 12 1 339 59 36 31 49 49 52 43
2 72 73 68 76 69 54 39 16 53 343 3 12 35 9 2 358 357 360 353 328 10 343 344 357 349 339 85 20 298 325 303 352 323 18 11 327 47 44 39 24 22 64 55
309 111 92 94 86 72 65 219 269 27 357 354 12 21 6 359 354 359 352 349 330 356 1 345 339 345 350 80 323 334 283 277 348 3 333 304 48 348 49 359 84 58 1 19
248 164 137 92 100 124 60 25 27 87 42 4 13 359 358 355 351 355 0 341 343 353 355 339 335 332 347 95 289 308 291 313 353 320 285 8 359 338 344 349 350 2 16 34
78 141 79 150 188 70 84 16 330 86 47 16 24 357 8 348 336 355 359 353 337 351 348 347 333 337 21 299 286 279 285 278 316 288 301 355 333 335 11 311 356 326 344 343
360 103 117 138 82 129 51 20 337 305 54 25 0 355 2 334 311 100 20 360 338 340 336 339 324 313 336 325 299 278 275 280 296 284 335 65 5 350 339 12 337 289 307 304
93 171 186 181 151 114 358 6 343 275 30 3 5 353 358 334 341 12 355 352 334 335 352 317 311 295 275 279 284 284 274 263 289 277 284 32 209 303 333 332 318 317 305 220
63 88 108 93 48 116 355 12 302 336 350 3 346 341 336 336 341 331 333 342 332 311 303 283 274 268 260 219 238 272 286 269 247 255 250 254 305 323 313 346 326 286 285 328
8 313 43 277 121 107 8 33 28 348 324 331 355 343 319 325 333 330 326 317 309 304 298 232 238 251 224 223 253 275 267 275 256 256 256 262 276 284 312 209 310 280 254 258
49 29 28 17 52 65 45 40 14 350 347 336 344 343 321 334 316 309 304 305 325 305 280 289 285 277 255 225 229 262 261 264 262 262 279 267 274 275 272 306 275 264 217 242
86 23 91 73 79 63 36 16 17 351 343 344 334 335 322 333 337 340 331 322 319 302 290 284 282 278 276 223 227 235 273 253 263 253 264 271 269 257 282 289 345 299 308 294
25 41 44 46 17 119 40 18 5 353 359 349 346 331 345 354 356 337 324 326 325 321 320 285 268 270 275 266 233 221 232 257 249 260 261 268 258 251 262 297 302 284 289 331
35 21 50 45 15 5 16 14 6 355 358 358 339 356 351 347 351 349 344 336 344 331 319 311 297 284 275 273 257 217 234 239 255 257 247 268 291 263 265 274 254 250 263 250